This is the latest recevied weather packets stored in our database for station/object KF7SOJ. If no packets are shown the sender has not sent any weather packets the latest 10 day(s).
| Time | Temp. | Humidity | Pressure | Rain* | Wind** | Luminosity | Snow |
|---|---|---|---|---|---|---|---|
| 1777667394 | 21.67° C | 18% | 933.9 hPa | 0 mm | - | 906 W/m² | - |
| 1777667090 | 22.22° C | 18% | 934 hPa | 0 mm | - | 910 W/m² | - |
| 1777666787 | 22.22° C | 17% | 934 hPa | 0 mm | - | 919 W/m² | - |
| 1777666484 | 22.22° C | 22% | 933.9 hPa | 0 mm | - | 923 W/m² | - |
| 1777666181 | 22.22° C | 20% | 934 hPa | 0 mm | - | 930 W/m² | - |
| 1777665878 | 21.67° C | 18% | 934.3 hPa | 0 mm | - | 932 W/m² | - |
| 1777665575 | 21.11° C | 22% | 934.2 hPa | 0 mm | - | 937 W/m² | - |
| 1777665272 | 21.11° C | 18% | 934.1 hPa | 0 mm | - | 941 W/m² | - |
| 1777664967 | 21.11° C | 19% | 934.1 hPa | 0 mm | - | 942 W/m² | - |
| 1777664663 | 21.67° C | 18% | 934.2 hPa | 0 mm | - | 948 W/m² | - |
| 1777664360 | 21.67° C | 22% | 934.3 hPa | 0 mm | - | 955 W/m² | - |
| 1777664058 | 21.11° C | 20% | 934.2 hPa | 0 mm | - | 960 W/m² | - |
| 1777663756 | 21.11° C | 21% | 934.4 hPa | 0 mm | - | 967 W/m² | - |
| 1777663453 | 20.56° C | 21% | 934.3 hPa | 0 mm | - | 957 W/m² | - |
| 1777663150 | 20.56° C | 21% | 934.2 hPa | 0 mm | - | 956 W/m² | - |
| 1777662847 | 20.56° C | 22% | 934.4 hPa | 0 mm | - | 956 W/m² | - |
| 1777662543 | 20.56° C | 21% | 934.4 hPa | 0 mm | - | 955 W/m² | - |
| 1777662240 | 21.11° C | 20% | 934.6 hPa | 0 mm | - | 952 W/m² | - |
| 1777661934 | 21.11° C | 19% | 934.8 hPa | 0 mm | - | 953 W/m² | - |
| 1777661631 | 20.56° C | 23% | 934.6 hPa | 0 mm | - | 952 W/m² | - |
| 1777661327 | 20.56° C | 22% | 934.8 hPa | 0 mm | - | 945 W/m² | - |
| 1777661023 | 20.56° C | 22% | 934.7 hPa | 0 mm | - | 945 W/m² | - |
| 1777660718 | 20.56° C | 22% | 934.9 hPa | 0 mm | - | 945 W/m² | - |
| 1777660416 | 20° C | 23% | 934.8 hPa | 0 mm | - | 942 W/m² | - |
| 1777660112 | 20° C | 23% | 934.6 hPa | 0 mm | - | 936 W/m² | - |
* Rain latest hour (hover to see other rain measurements)
** Current wind speed in m/s (hover to see current wind gust speed)